sat.trackr.live / text

‹ back to catalog

STARLINK-36885

NORAD 68049 · 2026-041K

PAYLOAD ACTIVE UNKNOWN

§ Identity

Operator
Country
US
Launch date
2026-03-02
Launch site
AFETR
Launch vehicle
Mass (kg)
RCS (m²)

Purposes: comms

External: N2YO · Heavens-Above · Gunter

§ Orbital elements

Epoch: 2026-05-25T03:03:20.683872Z

Period
93.58 min
Inclination
53.1587°
Eccentricity
0.0001162
Mean motion
15.38825278 rev/d
Perigee alt
448.8 km
Apogee alt
450.4 km
Semi-major
6,827.7 km
B*
1.1234e-3
RAAN
53.2556°
Arg perigee
107.0454°
Mean anomaly
253.0678°
Rev number
1,311

§ Raw data

STARLINK-368851 68049U 26041K   26145.12732273  .00043633  00000+0  11234-2 0  99962 68049  53.1587  53.2556 0001162 107.0454 253.0678 15.38825278 13111

JSON: /api/v1/satellites/68049 · /tle

For live sub-satellite position, see the globe view (requires WebGL).

§ Visibility from observer

Set your observer location to see the next 7 days of passes ≥ 10°. The values pass through the URL so the page stays shareable.

No JS? Fill the form by hand. The geolocation button needs JavaScript.